User: anonymous   Login
Location: Unspecified
(0.0000°N, 0.0000°E)
Time: 10:59:14
(UTC+00:00)
Language:

IGS RADAR-5 - Orbit

View from above orbital plane
View from above orbital plane
View from above satellite
View from above satellite

Ground track
Ground track

The orbit data is extracted from the following two-line orbital elements,

1 42072U 17015A   19274.84573830 0.00000000  00000-0  00000-0 0    03
2 42072  97.3598 344.0944 0003501  39.0817 320.9182 15.25979852    01
Epoch (UTC): 01 October 2019 20:17:51
Eccentricity: 0.0003501
inclination: 97.3598°
perigee height: 485 km
apogee height: 490 km
right ascension of ascending node: 344.0944°
argument of perigee: 39.0817°
revolutions per day: 15.25979852
mean anomaly at epoch: 320.9182°
orbit number at epoch: 0

The dashed part of the orbit path shows where the satellite is in the earth's shadow,  

DLR